EW4652 Weather Reports


Display with metric or nautical units.
time (UTC)temp
F
wind
direction
speed
MPH
gust
MPH
rain 1hr
in
rain 24hr
in
rain mn
in
humidity
%
barometer
mb
20260903011525 74 189 0.0 2.0 0.00 0.09 0.07 84 1011.3
20260903010024 75 189 1.0 2.0 0.00 0.09 0.07 82 1011.2
20260903004525 77 189 1.0 4.0 0.00 0.09 0.07 79 1011.2
20260903003023 79 189 1.0 3.0 0.00 0.09 0.07 76 1011.2
20260903001529 81 189 1.0 4.0 0.00 0.09 0.07 78 1011.1
20260903000022 82 189 1.0 2.0 0.00 0.09 0.07 76 1011.1
20260902234521 83 189 1.0 5.0 0.00 0.09 0.07 73 1011.2
20260902233021 85 215 1.0 2.0 0.00 0.09 0.07 72 1011.2
20260902231520 85 215 2.0 3.0 0.00 0.09 0.07 72 1011.3
20260902230019 85 215 1.0 5.0 0.00 0.09 0.07 71 1011.4
20260902224519 85 215 3.0 6.0 0.00 0.09 0.07 68 1011.5
20260902223018 85 229 4.0 6.0 0.00 0.09 0.07 67 1011.5
20260902221533 86 200 3.0 6.0 0.00 0.09 0.07 66 1011.4
20260902220016 86 250 4.0 8.0 0.00 0.09 0.07 64 1011.4
20260902214514 86 275 2.0 4.0 0.00 0.09 0.07 64 1011.4
20260902213018 85 279 1.0 4.0 0.00 0.09 0.07 66 1011.4
20260902211517 86 279 3.0 4.0 0.00 0.09 0.07 62 1011.5
20260902210013 86 279 1.0 3.0 0.00 0.09 0.07 62 1011.7
20260902204513 86 215 0.0 2.0 0.00 0.09 0.07 62 1011.7
20260902203010 85 236 2.0 7.0 0.00 0.09 0.07 65 1012.0
20260902201506 84 263 2.0 8.0 0.00 0.09 0.07 67 1012.2
20260902200003 84 217 4.0 8.0 0.00 0.09 0.07 69 1012.4
20260902194618 83 276 3.0 6.0 0.00 0.09 0.07 66 1012.4
20260902193059 83 259 6.0 9.0 0.00 0.09 0.07 70 1012.6
20260902191603 82 232 3.0 8.0 0.00 0.09 0.07 68 1012.3
20260902190053 81 214 4.0 8.0 0.00 0.09 0.07 71 1012.5
20260902184548 79 240 2.0 5.0 0.00 0.09 0.07 75 1012.7
20260902183102 78 271 3.0 6.0 0.00 0.09 0.07 79 1013.0
20260902181540 75 238 2.0 4.0 0.00 0.09 0.07 81 1013.0
20260902180038 74 236 3.0 9.0 0.00 0.09 0.07 83 1013.1
20260902174535 74 213 3.0 7.0 0.00 0.09 0.07 85 1013.1
20260902173050 74 202 5.0 9.0 0.00 0.09 0.07 86 1013.3
20260902171535 73 221 3.0 7.0 0.00 0.09 0.07 87 1013.4
20260902170036 73 198 7.0 10.0 0.00 0.09 0.07 86 1013.9
20260902164541 74 205 5.0 8.0 0.00 0.09 0.07 86 1014.0
20260902163032 74 200 2.0 7.0 0.00 0.09 0.07 86 1013.7
20260902161532 74 192 3.0 7.0 0.00 0.09 0.07 84 1013.5
20260902160029 74 171 3.0 9.0 0.00 0.09 0.07 85 1013.7
20260902154544 73 183 4.0 6.0 0.00 0.09 0.07 87 1013.4
20260902153025 72 148 4.0 8.0 0.00 0.09 0.07 87 1013.2
20260902151532 72 102 3.0 7.0 0.00 0.09 0.07 88 1013.0
20260902150024 71 140 6.0 11.0 0.00 0.09 0.07 88 1013.3
20260902144522 70 165 5.0 9.0 0.00 0.09 0.07 90 1013.7
20260902143018 69 303 2.0 7.0 0.00 0.09 0.07 91 1013.3
20260902141515 69 109 7.0 11.0 0.00 0.09 0.07 91 1013.2
20260902140015 68 88 4.0 9.0 0.00 0.09 0.07 91 1013.8
20260902134513 68 88 5.0 10.0 0.00 0.09 0.07 91 1013.4
20260902133015 68 104 5.0 9.0 0.00 0.09 0.07 90 1013.5
20260902131511 68 101 6.0 12.0 0.00 0.09 0.07 91 1013.2
20260902130026 68 111 5.0 8.0 0.00 0.09 0.07 91 1013.3
20260902124508 68 40 4.0 9.0 0.00 0.09 0.07 90 1013.5
20260902123012 67 105 6.0 13.0 0.00 0.09 0.07 91 1013.2
20260902121502 67 123 1.0 6.0 0.00 0.09 0.07 91 1013.2
20260902120059 67 136 6.0 11.0 0.00 0.09 0.07 91 1013.0
20260902114617 67 147 7.0 11.0 0.00 0.09 0.07 91 1012.4
20260902113055 67 102 7.0 12.0 0.01 0.09 0.07 91 1011.9
20260902111554 67 117 6.0 9.0 0.02 0.09 0.07 91 1012.6
20260902104557 69 138 7.0 14.0 0.03 0.09 0.07 86 1013.2
20260902103101 68 5 7.0 19.0 0.02 0.08 0.06 89 1011.8
20260902101550 68 48 2.0 5.0 0.02 0.07 0.05 89 1014.8
20260902100050 69 297 1.0 3.0 0.04 0.06 0.04 86 1015.7
20260902094549 70 336 3.0 21.0 0.04 0.06 0.04 83 1016.0
20260902093048 67 153 3.0 13.0 0.04 0.06 0.04 90 1014.1
20260902091544 67 73 7.0 13.0 0.03 0.05 0.03 91 1013.0
20260902090043 67 88 8.0 12.0 0.00 0.02 0.00 91 1012.9
20260902084540 67 76 4.0 11.0 0.00 0.02 0.00 90 1013.1
20260902083039 68 82 5.0 14.0 0.00 0.02 0.00 90 1013.2
20260902081543 68 64 7.0 13.0 0.00 0.02 0.00 90 1013.3
20260902080046 69 36 10.0 15.0 0.00 0.02 0.00 90 1013.9
20260902074531 69 22 7.0 12.0 0.00 0.02 0.00 89 1013.9
20260902073032 70 22 6.0 13.0 0.00 0.02 0.00 87 1013.7
20260902071527 70 22 8.0 15.0 0.00 0.02 0.00 85 1013.7
20260902070021 72 53 11.0 27.0 0.00 0.02 0.00 82 1013.9
20260902064518 74 108 0.0 3.0 0.00 0.02 0.00 91 1012.3
20260902063018 74 94 2.0 6.0 0.00 0.02 0.00 91 1012.1
20260902061515 74 85 3.0 8.0 0.00 0.02 0.00 90 1012.1
20260902060010 73 80 4.0 9.0 0.00 0.02 0.00 90 1011.7
20260902054515 73 92 6.0 10.0 0.00 0.02 0.00 89 1011.3
20260902053004 73 69 5.0 10.0 0.00 0.02 0.00 89 1011.7
20260902051558 73 104 5.0 9.0 0.00 0.02 0.00 88 1012.1
20260902050055 73 98 5.0 7.0 0.00 0.02 0.00 88 1012.1
20260902044554 74 98 6.0 8.0 0.00 0.02 0.02 86 1012.1
20260902043055 74 90 4.0 9.0 0.00 0.02 0.02 86 1012.4
20260902041605 74 91 5.0 9.0 0.01 0.02 0.02 85 1012.3
20260902040051 74 79 6.0 11.0 0.02 0.02 0.02 85 1012.3
20260902034550 74 84 6.0 9.0 0.02 0.02 0.02 84 1012.5
20260902033054 74 74 5.0 8.0 0.02 0.02 0.02 83 1012.9
20260902031547 75 57 4.0 9.0 0.01 0.01 0.01 82 1012.8
20260902030049 76 57 4.0 6.0 0.00 0.00 0.00 81 1012.9
20260902024546 77 87 5.0 8.0 0.00 0.00 0.00 77 1012.8
20260902023047 77 92 3.0 6.0 0.00 0.00 0.00 76 1012.8
20260902021549 77 63 4.0 8.0 0.00 0.00 0.00 75 1012.7
20260902020045 77 58 3.0 8.0 0.00 0.00 0.00 78 1012.9
20260902014548 77 70 3.0 8.0 0.00 0.00 0.00 80 1012.8
20260902013043 77 86 3.0 6.0 0.00 0.00 0.00 80 1012.7